Location: Walton
(43.6794°N, 81.3017°W)
Time: 00:27:47
(UTC+00:00)

Cosmos 2180 Rocket - Pass Details

Date: 08 March 2026
Orbit: 952 x 1004 km, 82.9° (Epoch: 14 April)

Event Time Altitude Azimuth Distance (km) Brightness Sun altitude
Rises 01:25:49 0° 334° (NNW) 3,644 8.1 -23.0°
Reaches altitude 10° 01:29:35 10° 311° (NW) 2,688 7.7 -23.7°
Maximum altitude 01:32:36 14° 281° (W) 2,385 7.5 -24.2°
Drops below altitude 10° 01:35:37 10° 251° (WSW) 2,677 7.5 -24.7°
Sets 01:39:23 0° 228° (SW) 3,619 7.9 -25.4°
